Regional Weather Roundup
Issued by NWS

Home | Current Version | Previous Version | Graphics & Text | Print | Product List | Glossary On
Versions: 1 2 3 4 5 6 7 8 9 10 11 12 13 14 15 16 17 18 19 20 21 22 23 24 25 26 27 28 29 30 31 32 33 34 35 36 37 38 39 40 41 42 43 44 45 46 47
000
ASUS43 KDMX 130707
RWRIA

WEATHER ROUNDUP FOR IOWA
NATIONAL WEATHER SERVICE DES MOINES IA
200 AM CDT SUN JUL 13 2014

NOTE: "FAIR" INDICATES FEW OR NO CLOUDS BELOW 12,000 FEET WITH NO
SIGNIFICANT WEATHER AND/OR OBSTRUCTIONS TO VISIBILITY.

* - THESE STATIONS ARE NOT NWS STATIONS...THUS NOT UNDER NWS
QUALITY CONTROL.  THEY ALSO DO NOT REPORT WEATHER SUCH
AS PRECIPITATION OR FOG.

IAZ001>003-012>014-020>022-031>034-043>046-130800-
   NORTHWEST IOWA

CITY           SKY/WX    TMP DP  RH WIND       PRES   REMARKS
CARROLL *      CLEAR     63  63 100 CALM      30.00F
CHEROKEE *     CLEAR     64  64 100 CALM      30.00S FOG
DENISON *      CLEAR     64  64 100 CALM      30.00S
LE MARS *      CLEAR     64  64 100 CALM      30.01S
ORANGE CITY *  CLEAR     66  63  88 CALM      30.02S
SHELDON *      CLEAR     63  63 100 CALM      30.00S
SIOUX CITY     CLEAR     66  65  96 NW5       30.01R
SPENCER        CLEAR     63  61  93 W3        30.00S
STORM LAKE *   CLEAR     64  64 100 N5        30.02R FOG
$$

IAZ055>058-069>071-079>083-090>094-130800-
   SOUTHWEST IOWA

CITY           SKY/WX    TMP DP  RH WIND       PRES   REMARKS
ATLANTIC *     CLEAR     64  64 100 SW3       30.03R
AUDUBON *      CLEAR     64  63  94 CALM      30.03S
CLARINDA *     PTCLDY    72  72 100 CALM      30.04S
COUNCIL BLFS *   N/A     68  68 100 CALM      30.03R
CRESTON *      CLEAR     68  68 100 N3        30.02F
HARLAN  *      CLEAR     63  63 100 CALM      30.05S
LAMONI         CLOUDY    72  70  93 N12       29.99F
RED OAK *      CLEAR     68  66  94 SW3       30.04R
SHENANDOAH *   PTCLDY    72  70  94 N5        30.03F
$$

IAZ047>049-059>061-072>074-084-130800-
   CENTRAL IOWA

CITY           SKY/WX    TMP DP  RH WIND       PRES   REMARKS
AMES           CLEAR     64  64 100 SW6       29.99S
ANKENY *       CLEAR     66  66 100 CALM      29.99S
CHARITON *     CLOUDY    70  68  94 N7        30.00F
DES MOINES     MOCLDY    68  66  93 SW5       30.00R
GRINNELL*      CLOUDY    66  64  94 CALM      30.01R
KNOXVILLE *    CLEAR     68  66  94 CALM      29.99S
MARSHALLTOWN   FOG       62  62 100 SW3       29.98S VSB 1/4
PELLA *        PTCLDY    66  64  94 CALM      30.01R
PERRY *          N/A     64  64 100 SW3       30.00F FOG
$$

IAZ004>006-015-016-023>025-035-036-130800-
   NORTH CENTRAL IOWA

CITY           SKY/WX    TMP DP  RH WIND       PRES   REMARKS
ALGONA *       CLEAR     63  63 100 SW3       29.99R
CLARION *      FOG       61  61 100 CALM      29.98S VSB 1/4
ESTHERVILLE    CLEAR     64  63  96 W7        29.99R
FORT DODGE *   CLOUDY    63  61  94 CALM      30.00S VSB 1/4
MASON CITY     FOG       60  60 100 SW3       29.98S VSB 1/4
FOREST CITY *  FOG       59  59 100 CALM      29.98S VSB 1/4
IOWA FALLS *     N/A     64  63  94 W3        30.00R FOG
$$

IAZ007>011-017>019-026>030-037>042-050>054-066-130800-
   NORTHEAST IOWA

CITY           SKY/WX    TMP DP  RH WIND       PRES   REMARKS
CEDAR RAPIDS   CLOUDY    67  65  93 W5        29.97R
CHARLES CITY * CLEAR     63  61  94 SW5       29.97R FOG
DECORAH *        N/A    N/A N/A N/A MISG        N/A
DUBUQUE        CLEAR     63  63 100 SW3       29.95R
MONTICELLO *   CLOUDY    66  66 100 NW7       29.95S
OELWEIN *      CLOUDY    66  66 100 W5        29.98R FOG
WATERLOO       CLEAR     63  62  97 SW3       29.96R
$$

IAZ064-065-067-068-078-130800-
   EAST CENTRAL IOWA

CITY           SKY/WX    TMP DP  RH WIND       PRES   REMARKS
DAVENPORT        N/A     67  65  93 NW8       29.95R
IOWA CITY      MOCLDY    66  66 100 W5        29.99R
MT. PLEASANT * CLOUDY    70  68  94 NW5       29.98S
MUSCATINE *    CLEAR     68  66  94 NW7       29.96S
QUAD CITIES    MOCLDY    70  67  90 NW8       29.94S
$$

IAZ062-063-075>077-085>089-095>099-130800-
   SOUTHEAST IOWA

CITY           SKY/WX    TMP DP  RH WIND       PRES   REMARKS
BURLINGTON     CLOUDY    72  71  97 NW3       29.95S
FAIRFIELD *    PTCLDY    68  66  94 VRB3      29.99S
FORT MADISON * CLOUDY    73  73 100 N5        29.97F
KEOKUK *       LGT RAIN  73  73 100 NW7       29.97R
OSKALOOSA *      N/A     66  66 100 W3        30.00S FOG
CENTERVILLE *  CLOUDY    70  70 100 N7        30.01S
OTTUMWA        CLOUDY    67  65  93 NW6       30.00R
WASHINGTON *   CLEAR     68  66  94 NW5       29.99R
$$

ABBREVIATIONS USED IN REMARKS
   TC - TEMPERATURES IN CELSIUS
  WCI - WIND CHILL INDEX
   HX - HEAT INDEX
  VSB - VISIBILITY
$$




USA.gov is the U.S. government's official web portal to all federal, state and local government web resources and services.